Location: ?????????
(55.2704°N, 39.2615°E)
Time: 15:06:45
(UTC+00:00)

Daily predictions for brighter satellites

Satellite Brightness Start Highest point End
(mag) Time Altitude Azimuth Time Altitude Azimuth Time Altitude Azimuth
Cosmos 1867 3.7 16:52:09 10° SW 16:57:38 85° NW 17:03:10 10° NE
NOSS 2-3 (C) 3.7 16:56:44 10° SSW 17:00:13 40° SE 17:04:15 10° ENE
Cosmos 1833 4.3 16:54:58 10° NW 17:00:41 89° NE 17:06:20 10° SSE
Cosmos 2366 rocket 4.1 16:54:49 10° N 17:01:13 83° ENE 17:07:36 10° SSE
Cosmos 371 Rocket 4.5 16:58:02 10° NNW 17:02:14 29° NE 17:06:25 10° ESE
Cosmos 1300 Rocket 4.1 17:00:09 10° SSE 17:04:11 38° E 17:08:17 10° NNE
CZ-4B R/B 3.6 16:59:11 10° S 17:04:49 71° WSW 17:10:26 10° NNW
Cosmos 2344 3.5 16:57:35 10° SW 17:04:56 75° SE 17:12:34 10° NE
NOSS 2-3 (D) 3.7 17:01:51 10° SSW 17:05:22 41° SE 17:09:25 10° ENE
USA 186 2.2 17:02:35 10° S 17:05:37 60° WSW 17:08:38 10° NNW
SPOT 1/Viking Rocket 4.1 17:00:36 10° S 17:05:47 62° WSW 17:11:00 10° NNW
DELTA 2 DEB (DPAF) 4.1 17:02:24 10° NNE 17:06:34 54° ESE 17:10:44 10° S
SJ 16-02 1.5 17:02:25 10° NNW 17:06:47 74° WSW 17:11:05 10° SSE
ATLAS 3B R/B 4.0 17:02:17 10° SSE 17:06:56 19° ESE 17:11:45 10° ENE
Cosmos 2218 Rocket 4.1 17:01:33 10° N 17:08:02 87° E 17:14:25 10° S
Cosmos 1455 2.1 17:05:17 10° S 17:08:47 54° E 17:12:17 10° NNE
Cosmos 1953 2.1 17:07:15 10° S 17:11:03 80° E 17:14:55 10° NNE
USA 281 3.4 17:07:45 10° SSE 17:14:20 83° WSW 17:20:58 10° NNW
Cosmos 2098 Rocket 3.7 17:10:59 10° SSE 17:15:40 38° E 17:19:34 10° NNE
NOSS 2-2 (E) 2.8 17:12:44 10° SSW 17:15:48 54° SE 17:19:02 10° ENE
Cosmos 2278 Rocket 4.0 17:11:22 10° WSW 17:16:34 35° NW 17:21:49 10° NNE
Cosmos 2263 Rocket 4.3 17:13:05 10° NNW 17:16:56 18° NNE 17:20:46 10° ENE
Cosmos 1821 Rocket 4.0 17:10:47 10° N 17:17:00 66° ENE 17:23:07 10° SSE
Terra 2.9 17:17:18 10° ESE 17:21:24 30° ENE 17:25:31 10° N
CZ-4C R/B 3.8 17:18:28 10° NNE 17:21:39 30° E 17:24:42 10° SSE
Genesis I 4.1 17:23:20 10° NW 17:26:42 35° NNE 17:29:59 11° E
Okean-O 2.6 17:22:28 10° SSE 17:26:53 77° ENE 17:31:19 10° NNW
NOSS 2-2 (D) 2.8 17:26:51 10° SSW 17:29:56 51° SE 17:33:07 10° ENE
Ariane Rocket 3.8 17:26:24 11° SE 17:30:44 36° ENE 17:35:19 10° N
NOSS 2-3 (E) 3.3 17:28:08 10° SW 17:31:51 70° SE 17:36:16 10° NE
Cosmos 1486 Rocket 4.1 17:27:55 10° NNW 17:33:10 69° ENE 17:38:02 12° SE
SPOT 3 Rocket 4.4 17:30:51 12° ESE 17:35:11 36° ENE 17:39:54 10° N
BREEZE-M R/B 3.1 17:35:37 10° WSW 17:37:49 24° S 17:38:57 17° SE
Cosmos 1825 4.2 17:35:12 10° NNW 17:38:09 26° W 17:41:05 10° SSW
Cosmos 2084 Rocket 4.3 17:39:31 10° WSW 17:43:36 50° NNW 17:47:32 10° NE
USA 245 4.3 17:39:19 12° SE 17:44:23 53° ENE 17:48:54 10° N
Cosmos 1656 Rocket 3.8 17:39:27 10° SW 17:45:00 78° NW 17:50:30 10° NNE
USA 267 3.3 17:38:59 10° ENE 17:45:35 88° SSE 17:52:10 10° WSW
USA 129 2.8 17:45:16 10° N 17:47:54 57° WNW 17:50:28 10° SSW
Okean 1 Rocket 4.5 17:47:13 16° ESE 17:49:12 21° E 17:52:35 10° NE
Okean O Rocket 2.9 17:45:59 10° SSW 17:50:04 39° W 17:54:12 10° NNW
Cosmos 1302 Rocket 4.0 17:45:38 10° SSW 17:50:55 88° ESE 17:56:12 10° NNE
Cosmos 1975 Rocket 3.9 17:49:21 10° NNW 17:53:35 51° W 17:57:46 10° S
Resurs 01 Rocket 3.1 17:51:06 10° SSW 17:55:10 36° W 17:59:17 10° NNW
Iridium 4 Rocket 4.3 17:51:43 15° SE 17:55:46 38° E 18:01:03 10° NNE
Cosmos 2227 Rocket 3.3 17:52:34 10° NNW 17:57:44 34° NE 18:02:08 13° E
CZ-4C R/B 3.3 17:52:25 10° NW 17:58:32 53° NNE 18:05:51 11° E
MetOp-A 4.4 18:01:03 19° ESE 18:02:57 29° ENE 18:06:17 10° N
ATLAS CENTAUR R/B 2.9 18:00:26 10° NW 18:03:30 24° NNE 18:06:40 10° ENE
Cosmos 1934 Rocket 4.0 17:57:37 10° N 18:03:44 65° ENE 18:08:46 16° SSE
ATLAS 5 CENTAUR R/B 2.0 18:01:59 14° S 18:04:09 25° ESE 18:07:20 10° ENE
Landsat 4 3.5 18:03:43 17° SSE 18:06:20 83° WSW 18:09:53 10° NNW
NOSS 3-1 (A) 3.9 18:06:17 10° S 18:10:36 28° ESE 18:15:36 10° ENE
Cosmos 1346 Rocket 4.3 18:07:59 10° SW 18:11:34 37° WNW 18:15:09 10° N
SPOT 5 3.3 18:08:59 11° S 18:14:11 72° WSW 18:19:30 10° NNW
NOSS 2-2 (C) 3.1 18:13:53 10° WSW 18:17:00 68° NW 18:20:22 10° NE
Cosmos 1943 Rocket 4.5 18:14:28 10° W 18:19:11 27° NNW 18:23:55 10° NNE
Cosmos 1536 Rocket 3.5 18:15:02 10° NNW 18:19:27 89° W 18:22:32 20° S
ERS-1 Rocket 2.9 18:16:37 17° SSE 18:20:28 88° WSW 18:25:32 10° NNW
COSMOS 2455 3.2 18:15:14 10° NW 18:21:14 60° NE 18:25:16 21° ESE
Cosmos 2058 4.5 18:18:27 10° NNE 18:21:33 21° ENE 18:22:49 18° E
CENTAUR R/B 3.6 18:17:00 10° WNW 18:24:15 55° NNE 18:32:42 11° E
Cosmos 2151 Rocket 3.5 18:22:34 17° S 18:25:54 66° E 18:30:19 10° NNE
Cosmos 1777 Rocket 4.0 18:21:21 10° NNW 18:26:39 90° SSE 18:29:54 24° SSE
Cosmos 1461 4.3 18:23:14 10° W 18:27:05 39° NNW 18:30:51 10° NE
Cosmos 2297 Rocket 2.3 18:21:35 10° NNW 18:27:15 67° NE 18:30:35 25° SE
ARGOS Delta rocket 4.3 18:24:39 24° SE 18:27:49 59° ENE 18:33:10 10° N
SL-27 R/B 4.0 18:26:51 10° NW 18:29:15 23° WSW 18:30:59 14° SSW
NOSS 3-1 (C) 3.1 18:27:32 10° SSW 18:32:36 65° SE 18:38:49 10° NE
Cosmos 2219 4.3 18:28:35 10° NNW 18:33:49 35° NE 18:37:28 18° E
SL-4 R/B 1.9 18:30:59 10° WSW 18:34:24 46° S 18:34:56 42° SSE
Cosmos 2369 Rocket 3.1 18:29:51 10° WSW 18:35:23 51° NW 18:40:54 10° NNE
Cosmos 1354 Rocket 4.0 18:31:05 10° NNW 18:36:27 82° WSW 18:39:31 26° SSE
Cosmos 1503 Rocket 4.3 18:31:31 10° NNW 18:36:51 67° WSW 18:40:15 23° S
H-2A R/B 4.0 18:39:07 17° ENE 18:40:07 19° ENE 18:42:49 10° NNE
Cosmos 371 Rocket 3.6 18:38:11 10° NNW 18:42:56 61° WSW 18:45:33 26° S
SJ 16-02 4.1 18:42:49 10° WNW 18:44:20 12° W 18:45:51 10° WSW
Cosmos 1992 Rocket 4.3 18:40:48 10° SW 18:46:00 69° WNW 18:51:15 10° NNE
Okean 2 Rocket 3.1 18:45:50 17° SSW 18:49:18 84° W 18:53:51 10° N
Spot 2 Rocket 3.7 18:46:51 23° S 18:50:03 66° WSW 18:55:07 10° NNW
ARIANE 5 R/B 3.7 18:49:45 26° E 18:51:14 33° ENE 18:55:16 10° N
Cosmos 1892 Rocket 3.6 18:48:53 10° N 18:53:13 64° ENE 18:54:34 41° SE
ATLAS 3B R/B 2.8 18:49:13 10° SSW 18:56:17 63° SE 19:03:48 10° NE
Terra 2.4 18:55:55 22° SSW 18:58:49 51° W 19:03:27 10° NNW
Cosmos 304 Rocket 4.2 18:55:38 10° NW 19:00:19 54° WSW 19:02:28 29° S
Cosmos 2263 Rocket 3.2 18:57:15 10° NNW 19:02:31 37° NE 19:05:39 21° E
Genesis I 3.3 18:59:46 10° NW 19:03:19 52° SW 19:03:48 47° SSW
Sich 1 Rocket 4.0 19:00:53 16° SSW 19:04:22 61° WNW 19:08:48 10° N
Cosmos 1656 3.9 19:02:52 34° SSE 19:04:37 45° ESE 19:09:50 10° NE
NOSS 8 (E) 4.1 19:02:16 10° NW 19:05:14 72° SW 19:05:21 71° SSW
MOS 1 Rocket 3.1 19:06:13 40° S 19:07:43 76° WSW 19:12:04 10° NNW
Cosmos 1605 Rocket 4.1 19:02:01 10° NNW 19:08:27 78° W 19:12:10 27° S
Ariane Rocket 3.7 19:06:32 21° SSW 19:09:35 47° W 19:14:29 10° NNW
NOSS 8 (H) 4.1 19:07:22 10° NW 19:10:19 85° SW 19:10:22 85° SSW
Cosmos 2173 Rocket 4.4 19:06:03 10° N 19:12:17 52° ENE 19:14:55 33° SE
Cosmos 332 Rocket 3.8 19:08:46 10° NNW 19:13:38 79° WSW 19:15:12 43° SSE
Cosmos 1437 Rocket 2.6 19:10:05 10° NNW 19:13:59 83° ENE 19:14:35 62° SSE
SPOT 3 Rocket 4.2 19:11:28 23° SSW 19:14:28 49° W 19:19:32 10° NNW
ALOS 2 4.3 19:14:43 20° E 19:15:55 22° ENE 19:19:17 10° N
Cosmos 2344 4.3 19:12:41 10° W 19:19:47 53° NNW 19:27:55 10° ENE
Cosmos 1763 Rocket 3.8 19:25:21 41° ESE 19:25:39 42° ESE 19:30:29 10° NE
Okean 1 Rocket 3.5 19:24:18 26° SW 19:26:39 60° WNW 19:31:06 10° N
Cosmos 405 Rocket 2.7 19:28:40 64° E 19:28:40 64° E 19:32:14 10° NNE
USA 267 3.4 19:22:03 10° E 19:28:37 78° N 19:35:10 10° W
CZ-2C R/B 4.3 19:24:35 10° NNE 19:29:05 40° E 19:29:16 40° ESE
Cosmos 990 Rocket 4.0 19:24:21 10° NNW 19:29:32 73° WSW 19:31:04 45° S
Cosmos 1455 Rocket 2.9 19:30:52 60° SSE 19:31:36 75° E 19:36:01 10° NNE
Aureole 1 Rocket 2.7 19:29:19 10° NNW 19:31:53 56° NW 19:31:53 56° NW
NOSS 3-2 (A) 4.2 19:27:40 10° NW 19:34:26 66° NNE 19:39:59 22° ESE
MetOp-A 4.4 19:39:03 32° SW 19:39:50 35° W 19:43:23 10° NNW
Cosmos 2016 Rocket 4.3 19:34:19 10° N 19:40:17 51° ENE 19:42:14 38° ESE
Meteor 2-1 Rocket 4.5 19:39:42 43° ESE 19:40:38 47° E 19:45:55 10° NNE
Cosmos 2100 Rocket 4.0 19:34:55 10° N 19:41:20 79° ENE 19:43:38 42° SSE
ATLAS CENTAUR R/B 1.1 19:38:05 10° NW 19:41:49 74° NE 19:41:52 73° NE
Cosmos 2227 Rocket 2.2 19:36:36 10° NW 19:42:18 74° WSW 19:43:56 47° S
Cosmos 2360 4.4 19:42:16 47° SE 19:43:00 49° ESE 19:48:30 10° NE
Cosmos 1727 Rocket 3.9 19:40:46 40° S 19:43:08 74° E 19:49:24 10° NNE
Landsat 5 4.1 19:42:27 10° N 19:46:43 54° WNW 19:48:24 32° SW
CZ-4C R/B 2.9 19:40:46 10° NW 19:47:31 76° SW 19:50:57 38° SSE
ATLAS 5 CENTAUR R/B 1.7 19:44:10 10° WSW 19:47:42 59° NNW 19:51:50 10° NE
Cosmos 1844 Rocket 4.4 19:44:09 10° NNW 19:48:55 27° NNE 19:53:11 12° E
Cosmos 468 Rocket 4.3 19:49:18 46° ESE 19:49:23 46° ESE 19:54:21 10° NE
PSLV R/B 4.4 19:46:15 10° NNE 19:49:41 45° ENE 19:49:41 45° ENE
Cosmos 44 3.9 19:50:43 45° ESE 19:50:43 45° ESE 19:55:22 10° NE
Cosmos 1980 Rocket 3.5 19:52:26 24° E 19:52:26 24° E 19:56:15 10° NE
Cosmos 1869 4.3 19:52:49 33° ENE 19:52:49 33° ENE 19:55:31 10° NNE
H-2A R/B 4.3 19:50:06 10° ENE 19:51:05 12° ENE 19:51:05 12° ENE
Cosmos 2228 3.8 19:55:26 36° ENE 19:55:26 36° ENE 19:58:49 10° NNE
USA 81 4.0 19:54:56 48° SSW 19:56:26 83° W 20:01:46 10° N
Cosmos 372 Rocket 3.9 19:53:12 10° NNW 19:58:29 86° ENE 19:59:30 59° SSE
Cosmos 2058 3.1 19:54:31 10° NNW 19:58:30 56° W 19:58:42 55° WSW
Cosmos 540 Rocket 3.4 20:00:18 57° ESE 20:00:31 57° ESE 20:05:33 10° NNE
NOSS 3-1 (A) 3.3 19:55:26 10° SW 20:00:42 81° NW 20:07:16 10° NE
Cosmos 2123 Rocket 4.3 20:00:05 44° SE 20:01:32 52° E 20:07:39 10° NNE
Cosmos 1697 Rocket 2.8 20:02:11 51° SE 20:02:36 52° ESE 20:08:06 10° NE
Cosmos 841 Rocket 4.5 20:03:46 31° E 20:03:46 31° E 20:07:44 10° NE
Cosmos 1000 Rocket 4.4 20:01:52 49° SSE 20:03:35 73° E 20:09:43 10° NNE
Meteor 2-15 4.4 19:59:34 10° NNW 20:05:46 88° E 20:07:30 50° SSE
Meteor 2-15 Rocket 4.5 20:00:07 10° N 20:06:19 71° ENE 20:07:58 49° SE
COSMOS 2455 3.5 20:01:24 10° NW 20:07:03 42° WSW 20:08:24 37° SSW
Cosmos 1544 4.4 20:05:40 10° N 20:07:19 30° N 20:07:19 30° N
USA 229 DEB 3.5 20:06:44 44° S 20:08:40 63° SE 20:15:31 10° NE
USA 229 3.5 20:06:53 44° S 20:08:46 62° SE 20:15:37 10° NE
Cosmos 1626 Rocket 3.5 20:05:17 10° NNW 20:09:40 70° W 20:09:54 68° SW
Cosmos 2297 Rocket 3.4 20:06:05 10° NW 20:10:56 30° WSW 20:12:24 26° SW
SL-4 R/B 4.4 20:09:40 10° W 20:09:47 11° W 20:09:47 11° W
Cosmos 2061 Rocket 4.2 20:07:05 10° N 20:13:32 66° ENE 20:15:22 46° SE
Cosmos 1937 Rocket 3.4 20:08:44 10° NNW 20:14:05 82° WSW 20:14:55 64° S
H-2A R/B 2.6 20:15:10 56° WNW 20:15:10 56° WNW 20:18:32 10° NNW
CENTAUR R/B 3.1 20:07:47 10° NW 20:15:41 83° SW 20:19:49 37° SE
Meteor 2-3 Rocket 3.7 20:10:44 10° NNW 20:16:25 83° WSW 20:17:38 57° S
Cosmos 2219 3.2 20:12:44 10° NW 20:18:23 68° WSW 20:19:22 57° S
Cosmos 1898 Rocket 3.6 20:13:21 10° NNW 20:18:33 60° WSW 20:19:15 54° SW
Okean 1-7 Rocket 3.5 20:15:21 10° NNW 20:19:53 82° W 20:20:03 80° SW
NOSS 3-1 (C) 4.2 20:18:18 10° W 20:23:39 51° NNW 20:30:19 10° NE
SL-08 R/B 4.5 20:17:49 10° N 20:24:16 83° E 20:25:55 53° SSE
Cosmos 1725 Rocket 3.9 20:20:01 10° NNW 20:26:14 86° W 20:27:47 54° S
ARIANE 5 R/B 3.4 20:27:13 42° WSW 20:27:33 42° W 20:31:52 10° NNW
Cosmos 1544 Rocket 3.6 20:31:55 72° W 20:31:58 72° WNW 20:36:19 10° N
Cosmos 2233 Rocket 3.9 20:26:54 10° N 20:33:05 77° ENE 20:34:32 55° SSE
Cosmos 292 Rocket 4.2 20:31:12 10° NW 20:35:45 47° WSW 20:35:46 47° WSW
Cosmos 1666 3.8 20:33:30 10° N 20:36:01 36° NNE 20:36:01 36° NNE
Cosmos 1862 3.6 20:33:15 10° N 20:36:36 62° N 20:36:36 62° N
Cosmos 1606 3.4 20:38:29 50° N 20:38:29 50° N 20:41:16 10° N
Cosmos 1459 Rocket 4.4 20:33:35 10° NNW 20:39:25 50° W 20:41:05 40° SW
Cosmos 2082 3.6 20:34:52 10° NW 20:40:31 69° WSW 20:41:12 62° SSW
Cosmos 2263 Rocket 2.2 20:41:13 10° NW 20:46:47 63° WSW 20:47:19 60° SW
NOSS 3-2 (C) 4.0 20:39:55 10° NW 20:46:52 77° NE 20:51:57 26° ESE
ATLAS 3B R/B 3.4 20:39:59 10° WSW 20:47:15 60° NNW 20:54:56 10° NE
Cosmos 1758 Rocket 4.3 20:46:02 10° NNW 20:50:12 43° W 20:50:12 43° W
Cosmos 1602 Rocket 4.2 20:46:27 10° NNW 20:50:27 46° W 20:50:27 46° W
ALOS 2 2.7 20:52:06 66° W 20:52:06 66° W 20:56:17 10° NNW
SL-19 R/B 4.2 20:46:51 10° NNE 20:52:28 81° ESE 20:53:25 63° S
Cosmos 2322 Rocket 4.2 20:55:58 14° E 20:55:58 14° E 20:58:36 10° ENE
Cosmos 1500 4.2 20:54:48 10° NNW 20:57:11 41° NNW 20:57:11 41° NNW
Spot 4 4.4 21:00:01 45° WSW 21:00:09 45° W 21:04:48 10° NNW
Lacrosse 4 Rocket 3.7 21:03:10 14° ENE 21:03:10 14° ENE 21:04:02 10° ENE
Cosmos 1763 Rocket 4.5 21:05:16 27° WSW 21:07:28 42° NW 21:12:22 10° NNE
Cosmos 1844 4.3 21:02:10 10° NNW 21:07:49 54° NE 21:10:04 34° ESE
Meteor 1-27 4.0 21:09:03 68° SSW 21:09:49 90° WNW 21:15:25 10° NNE
Uosat 12 SS-18 rocket 4.2 21:05:54 10° NW 21:10:14 72° WNW 21:10:14 72° WNW
Cosmos 1825 Rocket 3.9 21:07:06 10° NNW 21:11:00 56° WNW 21:11:00 56° WNW
SL-16 R/B 3.5 21:11:38 26° ESE 21:11:38 26° ESE 21:16:06 10° NE
USA 267 3.1 21:08:16 31° ESE 21:11:42 80° SSW 21:18:17 10° WNW
Cosmos 1606 Rocket 3.6 21:12:47 72° NNE 21:12:47 72° NNE 21:16:43 10° NNE
Cosmos 2058 Rocket 3.9 21:17:39 41° ENE 21:17:39 41° ENE 21:21:18 10° NNE
ATLAS CENTAUR R/B 3.7 21:16:24 10° WNW 21:16:59 13° WNW 21:16:59 13° WNW
Cosmos 2227 Rocket 4.1 21:21:59 10° WNW 21:25:24 16° W 21:25:45 16° WSW
NOSS 3-2 (A) 4.1 21:18:28 10° NW 21:25:30 56° SW 21:27:19 47° S
Cosmos 1271 Rocket 3.7 21:24:36 10° NNW 21:27:20 41° NW 21:27:20 41° NW
H-2A R/B 2.2 21:24:17 10° NNE 21:27:56 68° NNE 21:27:56 68° NNE
GEOS 3 Rocket 3.8 21:27:49 38° ESE 21:29:53 72° NE 21:35:11 10° NW
Cosmos 2278 4.2 21:30:50 44° ESE 21:30:58 44° ESE 21:36:19 10° NE
Cosmos 44 4.0 21:29:00 30° W 21:31:32 56° NW 21:36:42 10° NE
Cosmos 2228 4.3 21:32:00 30° WNW 21:32:18 30° WNW 21:36:04 10° N
ATLAS 5 CENTAUR R/B 3.4 21:28:56 10° WNW 21:32:22 29° N 21:36:22 10° NE
Geosat 3.9 21:33:18 71° SW 21:33:20 71° WSW 21:38:23 10° NW
Cosmos 1844 Rocket 2.6 21:27:59 10° NNW 21:33:40 80° NE 21:34:48 58° SE
Cosmos 1076 Rocket 3.7 21:30:12 10° NNW 21:34:03 69° NNW 21:34:03 69° NNW
Cosmos 1125 Rocket 3.4 21:29:46 10° NNW 21:35:01 79° ENE 21:35:40 67° SE
Cosmos 1980 Rocket 2.2 21:34:09 59° SW 21:35:13 79° NW 21:40:56 10° NNE
CZ-4C R/B 4.0 21:29:37 10° WNW 21:35:32 28° WSW 21:36:02 27° WSW
Cosmos 2344 4.4 21:28:13 10° WNW 21:35:38 56° NNE 21:45:02 10° E
PSLV R/B 3.6 21:31:50 10° NNE 21:36:24 86° NW 21:36:24 86° NW
Cosmos 2151 3.6 21:36:02 10° NNW 21:39:32 48° WNW 21:39:32 48° WNW
Cosmos 1238 Rocket 4.0 21:44:01 33° NNE 21:44:01 33° NNE 21:46:06 10° NNE
Meteor 1-22 4.5 21:38:46 10° NNW 21:44:13 88° ENE 21:44:56 69° SSE
Cosmos 841 Rocket 3.9 21:43:46 45° W 21:44:51 54° NW 21:49:55 10° NNE
USA 238 DEB 3.8 21:39:12 10° NW 21:46:23 90° NE 21:51:10 25° SE
USA 238 3.8 21:39:19 10° NW 21:46:29 89° NE 21:51:23 25° SE
Cosmos 1697 Rocket 3.6 21:43:51 25° W 21:46:44 43° NW 21:52:09 10° NNE
Helios 1A Rocket 3.2 21:49:34 62° NNE 21:49:34 62° NNE 21:53:03 10° NNW
Cosmos 2227 4.4 21:45:58 10° NW 21:51:32 53° WSW 21:51:39 53° WSW
Cosmos 1809 Rocket 4.4 21:50:40 58° S 21:51:58 79° E 21:58:11 10° NNE
Intercosmos 24 4.4 21:52:31 68° WSW 21:52:57 72° WNW 21:57:10 10° N
Cosmos 1726 Rocket 4.0 21:55:10 52° WNW 21:55:10 52° WNW 21:59:17 10° N
Cosmos 2369 3.8 21:54:28 53° WSW 21:55:44 72° NW 22:01:26 10° NNE
USA 229 DEB 4.2 21:54:04 13° W 21:59:49 57° NNW 22:06:55 10° NE
USA 229 4.2 21:54:13 13° W 21:59:54 57° NNW 22:07:01 10° NE
Cosmos-2242 3.6 22:01:13 48° E 22:01:13 48° E 22:05:04 10° NNE
Cosmos 2150 Rocket 4.0 21:56:08 10° NNW 22:01:18 78° ENE 22:02:11 61° SE
Cosmos 2298 Rocket 4.0 21:56:35 10° NNW 22:01:57 80° ENE 22:02:58 59° SE
Cosmos 2346 Rocket 4.5 22:03:20 54° SW 22:04:46 74° WNW 22:11:02 10° N
CENTAUR R/B 3.9 21:58:46 10° WNW 22:05:55 33° WSW 22:06:56 32° SW
Meteor 1-25 Rocket 4.1 22:02:44 10° NNW 22:08:26 86° W 22:09:25 63° S
Meteor 1-20 Rocket 4.1 22:03:55 10° NNW 22:09:29 73° W 22:10:17 63° SSW
Cosmos 1867 4.4 22:06:05 10° NW 22:11:27 50° NNE 22:16:47 10° ESE
CZ-2C R/B 4.2 22:08:25 13° ESE 22:12:36 32° ENE 22:17:20 10° N
USA 215 3.4 22:11:10 10° ENE 22:17:33 53° SE 22:18:42 47° S
Meteor 2-14 Rocket 4.4 22:18:19 54° SSW 22:19:47 78° WNW 22:25:58 10° N
Cosmos 1464 Rocket 4.2 22:14:17 10° NNW 22:20:31 60° W 22:21:53 49° SW
Resurs 1-4 Rocket 3.8 22:17:26 10° NE 22:21:38 23° E 22:23:46 18° ESE
Cosmos 158 Rocket 4.5 22:21:25 41° ESE 22:21:49 42° ESE 22:26:30 10° NE
Aureole 3 Rocket 3.1 22:18:05 10° N 22:23:38 78° ENE 22:24:02 71° SE
Cosmos 2333 Rocket 3.0 22:22:54 34° SE 22:23:54 36° ESE 22:29:02 10° NE
Lacrosse 5 3.3 22:26:26 24° ESE 22:26:26 24° ESE 22:29:51 10° E
Cosmos 2221 3.9 22:27:05 27° ESE 22:27:44 28° E 22:31:24 10° NNE
Cosmos 2360 Rocket 2.7 22:28:10 41° SE 22:29:10 45° ESE 22:34:32 10° NE
Cosmos 2263 Rocket 4.2 22:27:01 10° WNW 22:28:59 13° W 22:28:59 13° W
Cosmos 1766 Rocket 4.4 22:25:35 10° N 22:29:45 45° ENE 22:30:47 37° ESE
NOSS 3-4 (A) 4.4 22:29:01 27° SE 22:29:49 28° ESE 22:34:50 10° ENE
NOSS 3-4 (C) 4.4 22:29:04 27° SE 22:29:53 28° ESE 22:34:53 10° ENE
Cosmos 2278 Rocket 3.6 22:29:11 10° NNW 22:34:29 37° NE 22:39:44 10° ESE
Cosmos 1814 Rocket 4.4 22:34:20 44° W 22:35:31 54° NW 22:40:36 10° NNE
Cosmos 1570 Rocket 3.9 22:36:43 63° SSW 22:37:34 86° ESE 22:42:50 10° NNE
NOSS 3-2 (C) 4.3 22:30:51 10° NW 22:37:44 44° SW 22:39:19 40° SSW
USA 32 3.9 22:37:08 60° S 22:38:07 88° E 22:43:23 10° N
Cosmos 2322 Rocket 2.3 22:37:45 52° SSE 22:38:52 64° ESE 22:44:26 10° NE
Lacrosse 4 Rocket 1.3 22:39:06 72° NW 22:39:06 72° NW 22:43:02 10° NE
Cosmos 2034 Rocket 4.0 22:33:03 10° NNW 22:39:10 62° W 22:40:37 49° SW
ATLAS 3B R/B 4.0 22:32:08 10° WNW 22:39:20 45° N 22:46:47 10° ENE
Cosmos 2084 Rocket 4.4 22:38:53 10° NW 22:41:09 32° WNW 22:41:09 32° WNW
IDEFIX/ARIANE 42P 3.6 22:38:21 10° NNE 22:43:10 37° E 22:44:58 29° SE
Cosmos 1743 3.5 22:41:15 10° N 22:44:49 42° ENE 22:45:18 40° E
Cosmos 1812 3.9 22:45:20 31° NW 22:45:20 31° NW 22:48:10 10° N
BlueWalker 3 3.7 22:49:11 22° ESE 22:49:11 22° ESE 22:50:42 10° ESE
Cosmos 2219 Rocket 3.2 22:45:40 29° SE 22:47:15 34° ESE 22:52:14 10° NE
NOSS 2-2 (E) 4.2 22:43:38 10° NW 22:47:24 56° NNE 22:52:30 10° ESE
Cosmos 1844 4.2 22:46:32 10° NW 22:51:51 40° WSW 22:51:55 40° WSW
Cosmos 1933 3.2 22:52:14 87° NNW 22:52:14 87° NNW 22:56:09 10° NNE
Okean 3 Rocket 4.5 22:49:52 10° N 22:54:17 47° ENE 22:56:20 28° SE
SL-16 R/B 2.2 22:53:27 48° SW 22:55:06 77° NW 23:00:49 10° NNE
Cosmos 2058 Rocket 4.3 22:54:50 28° WNW 22:55:16 28° WNW 22:59:04 10° N
USA 267 3.6 22:55:32 39° SW 22:55:32 39° SW 23:01:22 10° WNW
NOSS 2-1 (C) 3.6 22:58:32 47° NNE 22:58:32 47° NNE 23:00:54 10° NE
NOSS 2-1 (E) 3.6 22:58:37 46° NE 22:58:37 46° NE 23:00:56 10° NE
Cosmos 1782 3.0 23:00:58 57° WNW 23:00:58 57° WNW 23:04:38 10° N
H-2A R/B 3.8 22:57:08 10° NNE 23:01:10 55° ESE 23:01:44 50° SE
NOSS 2-2 (D) 4.2 22:57:58 10° NW 23:01:39 54° NNE 23:06:37 10° ESE
H-2A R/B 4.0 23:00:59 10° NNW 23:03:42 17° NW 23:04:46 16° WNW
Cosmos 1634 Rocket 4.0 22:58:42 10° NNW 23:05:00 73° W 23:07:25 40° S
Cosmos 1812 Rocket 3.6 23:04:37 59° WSW 23:05:06 64° WNW 23:09:33 10° N
Timation 2 Rocket 4.4 23:00:44 10° NW 23:06:58 43° WSW 23:08:04 39° SW
GEOS 3 Rocket 4.3 23:08:51 36° WSW 23:08:51 36° WSW 23:13:07 10° WNW
Meteor 1-26 Rocket 4.3 23:06:37 41° S 23:08:40 77° E 23:14:30 10° NNE
ADEOS II 3.3 23:04:36 10° NNE 23:09:23 34° E 23:12:19 20° SSE
Meteor 1-14 Rocket 4.3 23:04:58 10° NNW 23:10:33 76° ENE 23:13:40 27° SSE
SL-16 R/B 2.9 23:06:45 10° SE 23:12:50 63° ENE 23:18:59 10° NNW
Meteor 1-28 Rocket 4.2 23:11:21 27° ESE 23:12:53 43° ENE 23:16:23 10° N
Geosat FO 4.4 23:10:52 10° NE 23:14:13 75° E 23:14:13 75° E
Cosmos 2278 4.3 23:12:42 31° WSW 23:15:06 49° NW 23:20:38 10° NNE
Cosmos 2142 Rocket 4.4 23:10:24 10° N 23:16:35 87° E 23:20:05 28° SSE
Cosmos 1844 Rocket 3.9 23:12:34 10° NW 23:16:26 24° W 23:16:26 24° W
ATLAS 5 CENTAUR R/B 3.3 23:13:20 10° NW 23:17:17 35° NNE 23:22:01 10° E
Cosmos 1980 Rocket 3.9 23:15:52 12° W 23:20:06 27° NNW 23:24:53 10° NNE
CZ-2D R/B 2.6 23:15:15 10° NNE 23:20:31 56° ESE 23:23:02 30° SSE
Cosmos 1726 3.2 23:17:50 10° N 23:20:49 34° ENE 23:21:59 25° ESE
Cosmos 1461 3.0 23:20:44 10° NW 23:24:38 66° NE 23:28:26 10° ESE
NOSS 2-1 (D) 3.4 23:25:50 45° NNW 23:25:52 45° NNW 23:28:51 10° NE
Cosmos 2084 4.0 23:28:22 33° WNW 23:29:37 46° NNW 23:33:19 10° NE
Cosmos 1515 4.2 23:29:52 41° WNW 23:29:52 41° WNW 23:33:13 10° N
Cosmos 2208 Rocket 4.4 23:28:56 35° WSW 23:30:57 56° NW 23:36:20 10° NNE
Cosmos 1900 4.4 23:28:44 10° NW 23:33:42 53° SW 23:35:33 34° S
Cosmos 1943 Rocket 3.1 23:30:21 10° NNW 23:35:53 52° NE 23:41:25 10° ESE
USA 238 4.5 23:30:35 10° WNW 23:36:57 34° WSW 23:38:43 30° SW
Cosmos 1408 Rocket 3.8 23:33:00 10° N 23:37:18 68° ENE 23:39:56 23° SSE
Cosmos 1842 Rocket 3.9 23:36:39 32° SSE 23:38:31 62° E 23:42:56 10° NNE
Cosmos-2242 4.4 23:37:49 24° W 23:38:34 25° WNW 23:42:05 10° N
COSMOS 2428 3.5 23:40:42 23° S 23:43:53 44° ESE 23:49:16 10° NE
IRIDIUM 104 4.2 23:38:53 10° N 23:44:08 76° W 23:46:42 31° S
Meteor 1-11 Rocket 3.8 23:40:20 10° NNW 23:45:59 76° ENE 23:51:31 10° SSE
NOSS 2-2 (C) 3.6 23:44:58 10° NW 23:48:54 89° SW 23:54:22 10° SE
Cosmos 1378 3.6 23:50:17 36° WNW 23:50:23 36° WNW 23:53:33 10° N
Cosmos 2237 Rocket 4.0 23:47:58 10° SSE 23:52:26 24° ESE 23:56:55 10° NE
CZ-2C R/B 2.7 23:49:54 28° S 23:52:39 58° W 23:57:58 10° NNW
Cosmos 2369 Rocket 4.4 23:48:10 10° NNW 23:52:56 27° NNE 23:57:40 10° E
IRIDIUM 114 4.3 23:48:04 10° N 23:53:16 65° W 23:55:51 30° SSW
Cosmos 1805 Rocket 4.0 23:49:19 10° N 23:53:39 62° ENE 23:57:50 11° SSE
Cosmos 1500 Rocket 3.7 23:49:51 10° N 23:54:21 75° ENE 23:57:59 15° SSE
